Effective Sunday, March 17, 2024, the National Weather Service National Data Buoy Center will discontinue its Dial-A-Buoy Interactive Voice Response system. For more information, see Service Change Notice 24-06 (PDF).

Station MEEM4 - Manistee Harbor, MI Image indicating link to RSS feed of recent meteorological observations for station MEEM4


Conditions at MEEM4 as of
(6:40 am EST)
1140 GMT on 03/03/2024:
     

Click on the graph icon in the table below to see a time series plot of the last five days of that observation.

5-day plot - Wind Direction Wind Direction (WDIR): SE ( 130 deg true )
5-day plot - Wind Speed Wind Speed (WSPD): 9.9 kts
5-day plot - Wind Gust Wind Gust (GST): 17.1 kts
5-day plot - Air Temperature Air Temperature (ATMP): 43.0 °F
5-day plot - Wind Chill Wind Chill (CHILL): 36.9 °F
5-day plot - Wind Speed at 10 Meters Wind Speed at 10 meters (WSPD10M): 9.7 kts
5-day plot - Wind Speed at 20 Meters Wind Speed at 20 meters (WSPD20M): 11.7 kts
5-day plot -  Wind Speed, Wind Gust and Atmospheric Pressure Combined plot of Wind Speed, Gust, and Air Pressure
Previous observations
TIME
(EST)
5-day plot - Wind Direction
WDIR
 
5-day plot - Wind Speed
WSPD
kts
5-day plot - Wind Gust
GST
kts
5-day plot - Wave Height
WVHT
ft
5-day plot - Dominant Wave Period
DPD
sec
5-day plot - Average Wave Period
APD
sec
5-day plot - Mean Wave Direction
MWD
 
5-day plot - Atmospheric Pressure
PRES
in
5-day plot - Pressure Tendency
PTDY
in
5-day plot - Air Temperature
ATMP
°F
5-day plot - Water Temperature
WTMP
°F
5-day plot - Dew Point
DEWP
°F
5-day plot - Salinity
SAL
psu
5-day plot - Visibility
VIS
nmi
5-day plot - Tide (above MLLW)
TIDE
ft
2024-03-03 06:30 am SE 9.9 19.0------ 43.2-----
2024-03-03 06:20 am SE 12.0 17.1------ 43.3-----
2024-03-03 06:10 am SE 15.0 18.1------ 43.5-----
2024-03-03 06:00 am SE 12.0 15.9------ 43.3-----
2024-03-03 05:50 am SE 9.9 17.1------ 43.2-----
2024-03-03 05:40 amESE 8.0 13.0------ 43.0-----
2024-03-03 05:30 amESE 8.0 12.0------ 42.8-----
2024-03-03 05:20 amESE 8.0 12.0------ 42.8-----
2024-03-03 05:10 amESE 7.0 12.0------ 42.4-----
2024-03-03 05:00 amESE 6.0 12.0------ 42.4-----
2024-03-03 04:50 amESE 7.0 11.1------ 42.4-----
2024-03-03 04:40 amESE 6.0 9.9------ 42.3-----
2024-03-03 04:30 amESE 6.0 13.0------ 42.3-----
2024-03-03 04:20 am SE 8.0 13.0------ 42.6-----
2024-03-03 04:10 am SE 8.9 15.0------ 42.6-----
2024-03-03 04:00 am SE 9.9 15.0------ 43.0-----
2024-03-03 03:50 am SE 13.0 15.9------ 43.5-----
2024-03-03 03:40 am SE 12.0 15.9------ 43.7-----
2024-03-03 03:30 am SE 8.9 15.0------ 43.5-----
2024-03-03 03:20 am SE 8.9 14.0------ 43.5-----
2024-03-03 03:10 am SE 8.0 11.1------ 43.5-----
2024-03-03 03:00 am SE 8.0 11.1------ 43.7-----
2024-03-03 02:50 am SE 8.0 14.0------ 43.5-----
2024-03-03 02:40 am SE 7.0 13.0------ 43.5-----
2024-03-03 02:30 am SE 8.0 14.0------ 43.5-----
2024-03-03 02:20 am SE 9.9 13.0------ 43.9-----
2024-03-03 02:10 am SE 8.0 11.1------ 43.2-----
2024-03-03 02:00 am SE 7.0 11.1------ 43.2-----
2024-03-03 01:50 am SE 7.0 11.1------ 42.8-----
2024-03-03 01:40 amESE 5.1 11.1------ 42.6-----
2024-03-03 01:30 amESE 7.0 9.9------ 42.8-----
2024-03-03 01:20 amESE 7.0 8.9------ 42.4-----
2024-03-03 01:10 amESE 6.0 9.9------ 42.4-----
2024-03-03 01:00 amESE 5.1 9.9------ 42.6-----
2024-03-03 12:50 amESE 7.0 15.0------ 43.5-----
2024-03-03 12:40 am SE 7.0 13.0------ 43.7-----
2024-03-03 12:30 am SE 8.0 15.0------ 43.9-----
2024-03-03 12:20 am SE 8.9 14.0------ 43.9-----
2024-03-03 12:10 am SE 8.0 12.0------ 43.5-----
2024-03-03 12:00 am SE 8.0 11.1------ 43.3-----
2024-03-02 11:50 pm SE 6.0 9.9------ 43.3-----
2024-03-02 11:40 pm SE 6.0 8.0------ 43.0-----
2024-03-02 11:30 pmESE 4.1 8.0------ 42.4-----
2024-03-02 11:20 pmESE 5.1 7.0------ 43.0-----
2024-03-02 11:10 pmESE 5.1 8.0------ 43.2-----
2024-03-02 11:00 pmESE 5.1 7.0------ 43.0-----
2024-03-02 10:50 pmESE 5.1 7.0------ 43.3-----
2024-03-02 10:40 pmESE 5.1 7.0------ 43.7-----
2024-03-02 10:30 pmESE 6.0 8.9------ 44.2-----
2024-03-02 10:20 pmESE 6.0 11.1------ 44.1-----
2024-03-02 10:10 pm SE 6.0 11.1------ 44.2-----
2024-03-02 10:00 pm SE 8.9 13.0------ 44.4-----
2024-03-02 09:50 pm SE 8.0 12.0------ 44.4-----
2024-03-02 09:40 pm SE 8.0 11.1------ 44.6-----
2024-03-02 09:30 pmSSE 8.0 9.9------ 44.6-----
2024-03-02 09:20 pmSSE 6.0 11.1------ 44.8-----
2024-03-02 09:10 pmSSE 7.0 12.0------ 45.0-----
2024-03-02 09:00 pmSSE 8.0 12.0------ 45.1-----
2024-03-02 08:50 pm SE 8.0 11.1------ 45.1-----
2024-03-02 08:40 pmSSE 7.0 12.0------ 45.3-----
2024-03-02 08:30 pmSSE 8.0 11.1------ 45.5-----
2024-03-02 08:20 pmSSE 4.1 9.9------ 45.7-----
2024-03-02 08:10 pm S 4.1 8.9------ 45.7-----
2024-03-02 08:00 pm S 2.9 7.0------ 45.7-----
2024-03-02 07:50 pmSSE 1.9 7.0------ 45.9-----
2024-03-02 07:40 pmSSE 1.9 7.0------ 45.7-----
2024-03-02 07:30 pm S 2.9 7.0------ 46.4-----
2024-03-02 07:20 pm S 4.1 6.0------ 46.6-----
2024-03-02 07:10 pm- 0.0 5.1------ 45.5-----
2024-03-02 07:00 pm- 0.0 5.1------ 45.3-----
2024-03-02 06:50 pm S 1.9 2.9------ 42.4-----
2024-03-02 06:40 pm S 1.9 6.0------ 42.8-----
2024-03-02 06:30 pm S 1.9 9.9------ 43.7-----
2024-03-02 06:20 pmSSW 8.9 13.0------ 43.3-----
2024-03-02 06:10 pmSSW 8.9 13.0------ 43.3-----
2024-03-02 06:00 pmSSW 9.9 12.0------------
2024-03-02 05:50 pmSSW 9.9 13.0------------
2024-03-02 05:40 pmSSW 9.9 12.0------------
2024-03-02 05:30 pmSSW 8.9 12.0------------
2024-03-02 05:20 pm SW 8.9 9.9------------
2024-03-02 05:10 pm SE 1.0 7.0------ 52.9-----
2024-03-02 05:00 pm S 1.9 8.0------ 52.0-----
2024-03-02 04:50 pm S 4.1 8.0------ 50.9-----
2024-03-02 04:40 pmSSW 5.1 9.9------ 49.1-----
2024-03-02 04:30 pmSSW 8.0 13.0------ 45.9-----
2024-03-02 04:20 pmSSW 8.0 13.0------ 44.8-----
2024-03-02 04:10 pmSSW 9.9 15.0------ 44.6-----
2024-03-02 04:00 pmSSW 11.1 13.0------ 44.4-----
2024-03-02 03:50 pmSSW 9.9 15.0------ 44.6-----
2024-03-02 03:40 pmSSW 8.9 12.0------ 43.9-----
2024-03-02 03:30 pmSSW 9.9 14.0------ 43.9-----
2024-03-02 03:20 pm S 5.1 13.0------ 45.0-----
2024-03-02 03:10 pm SW 13.0 15.0------ 43.9-----
2024-03-02 03:00 pmSSW 8.0 12.0------ 44.2-----
2024-03-02 02:50 pmSSW 11.1 15.0------ 44.2-----
2024-03-02 02:40 pmSSW 12.0 15.0------ 44.2-----
2024-03-02 02:30 pmSSW 9.9 15.0------ 44.1-----
2024-03-02 02:20 pmSSW 11.1 15.0------ 43.9-----
2024-03-02 02:10 pmSSW 8.0 15.0------ 43.9-----
2024-03-02 02:00 pmSSW 8.9 13.0------ 43.7-----
2024-03-02 01:50 pmSSW 8.0 14.0------ 43.5-----
2024-03-02 01:40 pm S 6.0 15.0------ 43.3-----
2024-03-02 01:30 pmSSW 11.1 15.0------ 43.2-----
2024-03-02 01:20 pm S 8.9 11.1------ 42.4-----
2024-03-02 01:10 pmSSW 8.9 15.0------ 43.3-----
2024-03-02 01:00 pm SW 12.0 14.0------ 43.2-----
2024-03-02 12:50 pmSSW 8.9 14.0------ 42.6-----
2024-03-02 12:40 pmSSW 8.9 15.0------ 42.6-----
2024-03-02 12:30 pmSSW 12.0 14.0------ 42.8-----
2024-03-02 12:20 pmSSW 9.9 14.0------ 42.3-----
2024-03-02 12:10 pmSSW 9.9 15.0------ 42.6-----
2024-03-02 12:00 pmSSW 13.0 17.1------ 42.3-----
2024-03-02 11:50 am SW 14.0 17.1------ 42.1-----
2024-03-02 11:40 am SW 13.0 15.0------ 42.1-----
2024-03-02 11:30 am S 8.9 14.0------ 41.9-----
2024-03-02 11:20 amSSW 12.0 15.9------ 42.3-----
2024-03-02 11:10 amSSW 8.9 15.0------ 41.9-----
2024-03-02 11:00 amSSW 12.0 14.0------ 41.9-----
2024-03-02 10:50 amSSW 8.0 15.0------ 41.5-----
2024-03-02 10:40 amSSW 8.9 13.0------ 41.5-----
2024-03-02 10:30 amSSW 6.0 12.0------ 41.2-----
2024-03-02 10:20 am S 6.0 11.1------ 40.8-----
2024-03-02 10:10 amSSW 7.0 9.9------ 40.5-----
2024-03-02 10:00 am S 7.0 11.1------ 40.3-----
2024-03-02 09:50 am S 5.1 12.0------ 39.9-----
2024-03-02 09:40 amSSW 7.0 9.9------ 39.7-----
2024-03-02 09:30 am S 4.1 9.9------ 40.3-----
2024-03-02 09:20 am S 4.1 8.0------ 40.1-----
2024-03-02 09:10 am S 4.1 7.0------ 40.3-----
2024-03-02 09:00 am S 1.9 6.0------ 40.3-----
2024-03-02 08:50 amSSE 1.9 6.0------ 39.7-----
2024-03-02 08:40 am S 1.9 7.0------ 40.1-----
2024-03-02 08:30 amSSW 2.9 7.0------ 39.6-----
2024-03-02 08:20 am S 2.9 6.0------ 38.5-----
2024-03-02 08:10 am S 2.9 7.0------ 37.6-----
2024-03-02 08:00 am S 2.9 8.0------ 37.2-----
2024-03-02 07:50 am S 2.9 5.1------ 36.7-----
2024-03-02 07:40 am S 2.9 6.0------ 36.5-----
2024-03-02 07:30 am S 1.9 6.0------ 36.3-----
2024-03-02 07:20 am S 1.9 7.0------ 36.5-----
2024-03-02 07:10 am S 2.9 6.0------ 37.0-----
2024-03-02 07:00 am S 2.9 6.0------ 37.2-----
2024-03-02 06:50 am S 1.9 5.1------ 37.6-----
2024-03-02 06:40 am SE 1.9 6.0------ 37.9-----
2024-03-02 06:30 amSSE 1.9 5.1------ 37.6-----
2024-03-02 06:20 am S 1.9 8.0------ 37.8-----
2024-03-02 06:10 am S 1.9 4.1------ 38.3-----
2024-03-02 06:00 amSSE 1.9 6.0------ 38.7-----
2024-03-02 05:50 am S 1.9 5.1------ 39.2-----